ONEWEB-0015, 61594

Orbit data source: Space-Track

ONEWEB-0015, 61594 is a payload satellite owned by Eut. One Web (UK) in LEO that was launched on Sun, 20 Oct 2024 UTC via an FALCON 9 launch vehicle from the Air Force Western Test Range (AFWTR). Payload-class satellites include a variety of spacecraft equipped with specific instruments for various scientific and technological missions. These include communications satellites like Starlink; space stations such as the ISS; scientific satellites like the Hubble; Earth observation satellites from companies like Planet Labs, Umbra, and HawkEye 360; GPS; miniature CubeSats for education and research; and military/defense satellites.

Loading next visibility...
Identifier
61594, 2024-188A
Orbit
LEO
Last TLE update
12 hours ago
Origin
Manufacturer
One Web
Mission
Operational Commercial Communications
Bus & Motor
ARROW, Unknown motor
Mass
148 kg wet, ~140 kg dry
Launch date (UTC)
2024-10-20 (9 months ago)
Launch vehicle
FALCON 9
Launch site
Air Force Western Test Range (AFWTR)
Object type
Payload
Rocket body
Debris
Shape & HBR
Trap Box + 2 Pan, 5 m
Radar Cross Section
2.032 m², Large (>1 m²)

Expand to show TLE details & history

TLE from 12 hours ago
0 ONEWEB-0015
1 61594U 24188A   25186.23544380 -.00000227  00000-0 -67512-3 0  9996
2 61594  87.8867  90.2517 0001259  81.1587 278.9683 13.11418964 38981
Epoch: 2025-07-05T05:39Z
TLE epoch observation values (Epoch: 2025-07-05T05:39:02.344Z)
Latitude
-0.00006°
Longitude
82.01553°
Altitude
1,220.415 km
Speed
7.244 km/s
True Right ascension
06h 01m 00s
True Declination
0° 00' 00"
Sunlit
Object was in daylight at epoch
Visualization orbit readout
Latitude
-76.79601°
Longitude
72.90947°
Altitude
1,246.247 km
Speed
7.231 km/s
Apparent Right ascension
18h 19m 30s
Apparent Declination
-74° 29' 03"
Sunlit
Object is in daylight
Visualization observer readout
Local Sidereal Time
06:00:05
Azimuth
182.282° SSW
Elevation
-55.358°
Doppler factor
1
Orbital elements
Apogee altitude
1,215.749 km
Perigee altitude
1,213.837 km
Semi-major axis
7,592.93 km
Eccentricity
0.00013
Inclination
87.8867°
RAAN
90.2517°
Arg. of periapsis
81.1587°
True anomaly
Unknown
Mean anomaly
278.9683°
Eccentric anomaly
Unknown
Mean motion
3.28042 °/min
Orbital period
109.74 mins
BSTAR
-0.00067512
Loading maneuver chart data...
Loading SW <> Apogee altitude chart data...
Loading historical data...
Loading historical data...
Loading historical data...
Loading historical data...
Loading historical data...
Loading historical data...
Loading historical data...

ONEWEB-0015 Visibility forecast

Observer location: undefined°, undefined°

Span
Click to sort rows by Start time (UTC) header in descending order
Start Az.
Max El. time (UTC)
Max El. Az.
Max El.
End time (UTC)
End Az.
13 mins2025-07-05 18:33:36.890Z196.232° SSW2025-07-05 18:40:36.890Z284.29° WNW40.428°2025-07-05 18:46:36.890Z350.978° N
8 mins2025-07-06 04:15:36.890Z39.112° NE2025-07-06 04:19:36.890Z76.73° E18.429°2025-07-06 04:23:36.890Z112.924° SE
12 mins2025-07-06 06:04:36.890Z353.35° N2025-07-06 06:09:36.890Z296.731° NW43.522°2025-07-06 06:16:36.890Z190.66° SSW
9 mins2025-07-06 16:35:36.890Z111.654° ESE2025-07-06 16:39:36.890Z72.22° E20.502°2025-07-06 16:44:36.890Z28.657° NE
|